Flag for Australia Weather past 2 weeks in Albury, New South Wales, Australia

Now
45 °F

Scattered clouds.


Feels Like: 43 °F
Forecast: 42 / 50 °F
Wind: 3 mph from North

Location: Albury Airport

Current Time: Aug 4, 2015 at 11:59:51 AM

Latest Report: Aug 4, 2015 at 11:00 AM


Visibility: N/A

Pressure: 30.24 "Hg

Humidity: 66%

Dew point: 34 °F

Location of AlburyLocation

Historic Weather in Albury — Graph

°F

Albury temperature yesterday

Maximum temperature yesterday: 52 °F (at 12:00 PM)
Minimum temperature yesterday: 36 °F (at 10:00 PM)
Average temperature yesterday: 46 °F

Past Weeks' High & Low Weather Summary

 TemperatureHumidityPressure
High63 °F (Jul 23, 3:00 PM)100% (Jul 21, 12:00 AM)30.57 "Hg (Jul 21, 12:00 AM)
Low28 °F (Aug 4, 5:00 AM)43% (Aug 3, 4:00 PM)29.89 "Hg (Jul 24, 2:00 PM)
Average47 °F83%30.20 "Hg
* Reported Jul 20 11:00 AM — Aug 4 11:00 AM, Albury, Weather by CustomWeather, © 2015

Note: Actual official high and low records may vary slightly from our data, if they occured in-between our weather recording intervals... More about our weather records

Advertising

Albury weather history for previous 24 hours

 ConditionsComfort  
Time TempWeatherWind HumidityBarometerVisibility
11:00 AM
Tue, Aug 4
45 °FScattered clouds.3 mph66%30.24 "HgN/A
10:00 AM39 °FSunny.2 mph75%30.24 "HgN/A
9:00 AM37 °FSunny.3 mph81%30.24 "HgN/A
8:00 AM32 °FSunny.2 mph93%30.24 "HgN/A
7:00 AM28 °FSunny.No wind93%30.24 "HgN/A
6:00 AM28 °FClear.No wind93%30.21 "HgN/A
5:00 AM28 °FClear.1 mph100%30.21 "HgN/A
4:00 AM30 °FClear.No wind93%30.21 "HgN/A
3:00 AM30 °FClear.No wind100%30.21 "HgN/A
2:00 AM32 °FClear.No wind93%30.21 "HgN/A
1:00 AM34 °FClear.1 mph87%30.21 "HgN/A
12:00 AM36 °FClear.5 mph81%30.21 "HgN/A
11:00 PM
Mon, Aug 3
36 °FClear.6 mph81%30.21 "HgN/A
10:00 PM36 °FClear.7 mph81%30.21 "HgN/A
9:00 PM37 °FClear.6 mph75%30.21 "HgN/A
8:00 PM39 °FClear.6 mph75%30.18 "HgN/A
7:00 PM45 °FClear.8 mph57%30.18 "HgN/A
6:00 PM45 °FClear.9 mph53%30.12 "HgN/A
5:00 PM48 °FClear.13 mph43%30.09 "HgN/A
4:00 PM50 °FSunny.15 mph43%30.09 "HgN/A
3:00 PM52 °FSunny.16 mph50%30.07 "HgN/A
2:50 PM52 °FSunny.17 mph47%30.07 "HgN/A
2:00 PM52 °FScattered clouds.18 mph54%30.04 "HgN/A
1:00 PM52 °FScattered clouds.22 mph54%30.04 "HgN/A
12:00 PM52 °FBroken clouds.20 mph62%30.04 "HgN/A
11:00 AM50 °FScattered clouds.16 mph88%30.04 "HgN/A
Weather by CustomWeather, © 2015

See weather overviewHow to use our weather pages